Hourly Data Report for October 16, 2017

All times are specified in Local Standard Time (LST). Add 1 hour to adjust for Daylight Saving Time where and when it is observed.

NAUJAAT A
NUNAVUT

66°31'14.000" N
86°13'29.000" W
22.90 m
2403495
YUT

Related Data

No related data is available for this station

Download Data

Hourly Data (October 2017)
Hourly Data Report for October 16, 2017
Temp Definition
°C
Dew Point Temp Definition
°C
Rel Hum Definition
%
Wind Dir Definition
10's deg

Wind Spd Definition
km/h
Visibility Definition
km
Stn Press Definition
kPa
Hmdx Definition


Wind Chill Definition


Weather Definition


TIME
00:00 Legend Double Dagger -7.5 -9.6 85 1 17 LegendMM 100.05   -14 LegendNANA
01:00 Legend Double Dagger -7.5 -9.6 85 1 16 LegendMM 100.07   -14 LegendNANA
02:00 Legend Double Dagger -7.5 -9.7 85 1 16 LegendMM 100.07   -14 LegendNANA
03:00 Legend Double Dagger -7.8 -9.8 86 35 17 LegendMM 100.08   -14 LegendNANA
04:00 Legend Double Dagger -7.9 -9.8 86 36 19 LegendMM 100.08   -15 LegendNANA
05:00 Legend Double Dagger -8.1 -10.2 85 35 21 LegendMM 100.10   -16 LegendNANA
06:00 Legend Double Dagger -8.6 -10.7 85 35 19 LegendMM 100.11   -16 LegendNANA
07:00 Legend Double Dagger -8.7 -10.9 84 34 15 LegendMM 100.14   -15 LegendNANA
08:00 Legend Double Dagger -8.5 -10.7 85 35 16 LegendMM 100.15   -15 LegendNANA
09:00 Legend Double Dagger -8.6 -10.7 85 34 15 LegendMM 100.18   -15 LegendNANA
10:00 Legend Double Dagger -8.5 -11.1 82 35 23 LegendMM 100.20   -17 LegendNANA
11:00 Legend Double Dagger -8.3 -11.0 81 35 22 LegendMM 100.22   -16 LegendNANA
12:00 Legend Double Dagger -8.3 -10.7 83 36 22 LegendMM 100.24   -16 LegendNANA
13:00 Legend Double Dagger -8.7 -11.3 82 35 21 LegendMM 100.26   -16 LegendNANA
14:00 Legend Double Dagger -8.9 -11.5 81 35 21 LegendMM 100.30   -17 LegendNANA
15:00 Legend Double Dagger -9.3 -12.0 81 35 21 LegendMM 100.34   -17 LegendNANA
16:00 Legend Double Dagger -9.6 -12.4 81 35 25 LegendMM 100.37   -18 LegendNANA
17:00 Legend Double Dagger -9.7 -12.5 80 36 30 LegendMM 100.41   -19 LegendNANA
18:00 Legend Double Dagger -10.2 -13.2 79 36 29 LegendMM 100.44   -20 LegendNANA
19:00 Legend Double Dagger -10.7 -13.9 77 35 27 LegendMM 100.48   -20 LegendNANA
20:00 Legend Double Dagger -11.4 -14.7 77 35 29 LegendMM 100.48   -21 LegendNANA
21:00 Legend Double Dagger -11.4 -14.5 78 35 32 LegendMM 100.51   -22 LegendNANA
22:00 Legend Double Dagger -12.0 -14.8 80 35 36 LegendMM 100.52   -23 LegendNANA
23:00 Legend Double Dagger -12.5 -15.2 81 36 32 LegendMM 100.54   -23 LegendNANA

Notes on Data Quality.

Legend

  • E = Estimated
  • M = Missing
  • NA = Not Available
  • ‡ = Partner data that is not subject to review by the National Climate Archives
Date modified: